Location: Lake Arresoe
(56.0000°N, 12.5000°E)
Time: 05:18:30
(UTC+02:00)

Resurs 1-4 Rocket - Visible Passes

Search period start: 21 October 2018 00:00
Search period end: 30 October 2018 23:00
Orbit: 800 x 813 km, 98.5° (Epoch: 20 October)

Date Brightness Start Highest point End Pass type
(mag) Time Alt. Az. Time Alt. Az. Time Alt. Az.
21 Oct 4.1 02:50:03 10° NNE 02:52:19 24° NE 02:52:19 24° NE visible
21 Oct 3.3 04:30:06 10° N 04:33:23 31° NNW 04:33:23 31° NNW visible
21 Oct 4.1 06:11:52 10° NNW 06:13:33 11° NW 06:14:28 11° NW visible
22 Oct 4.5 02:25:39 10° NNE 02:27:19 18° NE 02:27:19 18° NE visible
22 Oct 3.4 04:05:22 10° N 04:08:24 33° N 04:08:24 33° N visible
22 Oct 3.9 05:46:25 10° N 05:49:23 15° NW 05:49:28 15° NW visible
23 Oct 4.8 02:01:26 10° NE 02:02:20 14° NE 02:02:20 14° NE visible
23 Oct 3.6 03:40:41 10° NNE 03:43:25 31° N 03:43:25 31° N visible
23 Oct 3.7 05:21:21 10° N 05:24:29 20° NW 05:24:29 20° NW visible
24 Oct 4.0 03:16:05 10° NNE 03:18:25 27° NNE 03:18:25 27° NNE visible
24 Oct 3.5 04:56:27 10° N 04:59:29 24° NNW 04:59:29 24° NNW visible
25 Oct 4.3 02:51:33 10° NNE 02:53:25 21° NNE 02:53:25 21° NNE visible
25 Oct 3.5 04:31:38 10° N 04:34:29 27° NNW 04:34:29 27° NNW visible
25 Oct 4.1 06:13:29 10° NNW 06:15:02 11° NW 06:15:34 11° NW visible
26 Oct 4.7 02:27:09 10° NNE 02:28:26 16° NE 02:28:26 16° NE visible
26 Oct 3.6 04:06:53 10° N 04:09:30 28° N 04:09:30 28° N visible
26 Oct 3.9 05:47:58 10° N 05:50:34 15° NW 05:50:34 15° NW visible
27 Oct 4.9 02:02:55 10° NE 02:03:26 12° NE 02:03:26 12° NE visible
27 Oct 3.9 03:42:12 10° NNE 03:44:31 27° N 03:44:31 27° N visible
27 Oct 3.8 05:22:54 10° N 05:25:35 19° NNW 05:25:35 19° NNW visible
28 Oct 4.2 02:17:35 10° NNE 02:19:31 23° NNE 02:19:31 23° NNE visible
28 Oct 3.7 03:57:59 10° N 04:00:36 22° NNW 04:00:36 22° NNW visible
29 Oct 4.5 01:53:03 10° NNE 01:54:32 19° NNE 01:54:32 19° NNE visible
29 Oct 3.7 03:33:09 10° N 03:35:36 24° NNW 03:35:36 24° NNW visible
29 Oct 4.1 05:15:06 10° NNW 05:16:30 11° NW 05:16:40 11° NW visible
30 Oct 4.8 01:28:39 10° NNE 01:29:33 14° NE 01:29:33 14° NE visible
30 Oct 3.8 03:08:24 10° N 03:10:37 25° N 03:10:37 25° N visible
30 Oct 4.0 04:49:32 10° N 04:51:41 14° NW 04:51:41 14° NW visible
